FW4331 Weather Reports


time (UTC)temp
C
wind
direction
speed
KPH
gust
KPH
rain 1hr
cm
rain 24hr
cm
rain mn
cm
humidity
%
barometer
mb
20260831151527 27 264 4.8 12.9 0.00 0.00 0.00 36 1018.2
20260831150024 27 286 3.2 17.7 0.00 0.00 0.00 34 1018.2
20260831144517 27 143 0.0 8.0 0.00 0.00 0.00 37 1018.2
20260831143015 26 277 3.2 12.9 0.00 0.00 0.00 38 1018.3
20260831141511 26 287 3.2 11.3 0.00 0.00 0.00 39 1018.2
20260831140007 26 308 4.8 11.3 0.00 0.00 0.00 40 1018.2
20260831134516 25 129 1.6 12.9 0.00 0.00 0.00 41 1018.3
20260831133011 25 154 1.6 9.7 0.00 0.00 0.00 41 1018.2
20260831131501 25 241 4.8 16.1 0.00 0.00 0.00 40 1018.3
20260831130055 24 275 1.6 12.9 0.00 0.00 0.00 42 1018.2
20260831124551 24 210 1.6 16.1 0.00 0.00 0.00 42 1018.1
20260831123046 23 193 6.4 14.5 0.00 0.00 0.00 44 1018.2
20260831121545 22 217 3.2 9.7 0.00 0.00 0.00 45 1017.9
20260831120042 22 144 3.2 9.7 0.00 0.00 0.00 46 1017.9
20260831114535 22 146 1.6 8.0 0.00 0.00 0.00 46 1017.9
20260831113033 22 166 1.6 6.4 0.00 0.00 0.00 46 1017.7
20260831111529 -17 0.0 0.0 0.00 0.00 0.00 1017.6
20260831110024 -17 0.0 0.0 0.00 0.00 0.00 1017.4
20260831104529 -17 0.0 0.0 0.00 0.00 0.00 1017.1
20260831103022 21 4 0.0 0.0 0.00 0.00 0.00 48 1017.1
20260831101516 20 273 0.0 0.0 0.00 0.00 0.00 47 1016.9
20260831100014 20 273 0.0 0.0 0.00 0.00 0.00 47 1017.1
20260831094520 21 359 0.0 0.0 0.00 0.00 0.00 47 1017.1
20260831093015 21 351 0.0 0.0 0.00 0.00 0.00 48 1017.1
20260831091518 20 18 0.0 0.0 0.00 0.00 0.00 47 1017.0
20260831090004 20 36 0.0 0.0 0.00 0.00 0.00 47 1016.9
20260831084511 20 35 0.0 0.0 0.00 0.00 0.00 47 1017.0
20260831083001 20 13 0.0 0.0 0.00 0.00 0.00 48 1016.8
20260831081558 20 141 0.0 0.0 0.00 0.00 0.00 47 1016.7
20260831080117 20 146 0.0 0.0 0.00 0.00 0.00 46 1016.5
20260831074552 20 146 0.0 0.0 0.00 0.00 0.00 46 1016.5
20260831073048 20 146 0.0 0.0 0.00 0.00 0.00 45 1016.6
20260831071548 20 146 0.0 0.0 0.00 0.00 0.00 44 1016.6
20260831070041 21 145 0.0 0.0 0.00 0.00 0.00 44 1016.7
20260831064548 21 275 0.0 0.0 0.00 0.00 0.00 44 1016.7
20260831063053 21 274 0.0 0.0 0.00 0.00 0.00 44 1016.8
20260831061535 21 274 0.0 0.0 0.00 0.00 0.00 44 1016.9
20260831060032 21 275 0.0 0.0 0.00 0.00 0.00 44 1016.9
20260831054528 21 274 0.0 0.0 0.00 0.00 0.00 42 1017.0
20260831053026 21 275 0.0 0.0 0.00 0.00 0.00 42 1017.0
20260831051532 21 275 0.0 0.0 0.00 0.00 0.00 41 1017.1
20260831050019 22 275 0.0 0.0 0.00 0.00 0.00 40 1017.2
20260831044517 22 274 0.0 0.0 0.00 0.00 0.00 40 1017.2
20260831043013 22 275 0.0 0.0 0.00 0.00 0.00 39 1017.3
20260831041512 22 275 0.0 0.0 0.00 0.00 0.00 40 1017.5
20260831040014 22 275 0.0 0.0 0.00 0.00 0.00 45 1017.4
20260831034506 22 275 0.0 0.0 0.00 0.00 0.00 47 1017.5
20260831033002 22 274 0.0 0.0 0.00 0.00 0.00 47 1017.4
20260831031600 22 275 0.0 0.0 0.00 0.00 0.00 47 1017.4
20260831030057 22 275 0.0 0.0 0.00 0.00 0.00 48 1017.6
20260831024600 22 275 0.0 0.0 0.00 0.00 0.00 55 1017.9
20260831023054 23 274 0.0 0.0 0.00 0.00 0.00 60 1017.9
20260831021552 23 276 0.0 0.0 0.00 0.00 0.00 60 1018.0
20260831020050 23 172 0.0 0.0 0.00 0.00 0.00 61 1017.9
20260831014548 23 174 0.0 0.0 0.00 0.00 0.00 61 1018.1
20260831013047 23 174 0.0 0.0 0.00 0.00 0.00 62 1018.0
20260831011545 23 174 0.0 0.0 0.00 0.00 0.00 62 1017.9
20260831010040 24 170 0.0 1.6 0.00 0.00 0.00 61 1017.7
20260831004540 24 136 0.0 3.2 0.00 0.00 0.00 60 1017.6
20260831003137 24 103 0.0 4.8 0.00 0.00 0.00 60 1017.4
20260831001534 24 134 1.6 6.4 0.00 0.00 0.00 60 1017.4
20260831000034 25 88 4.8 9.7 0.00 0.00 0.00 60 1017.2
20260830234631 25 122 1.6 4.8 0.00 0.00 0.00 60 1017.2
20260830233028 26 7 3.2 11.3 0.00 0.00 0.00 58 1017.4
20260830231527 28 317 4.8 14.5 0.00 0.00 0.00 55 1017.5
20260830230025 28 197 1.6 6.4 0.00 0.00 0.00 54 1017.0
20260830224522 28 165 1.6 4.8 0.00 0.00 0.00 54 1017.0
20260830223025 28 137 1.6 8.0 0.00 0.00 0.00 54 1017.1
20260830221518 29 173 3.2 9.7 0.00 0.00 0.00 52 1016.8
20260830220018 30 174 6.4 11.3 0.00 0.00 0.00 50 1016.6
20260830214615 29 282 4.8 9.7 0.00 0.00 0.00 52 1016.5
20260830213013 30 209 6.4 14.5 0.00 0.00 0.00 49 1016.5
20260830211512 30 224 3.2 6.4 0.00 0.00 0.00 50 1016.5
20260830210010 30 266 3.2 8.0 0.00 0.00 0.00 50 1016.4
20260830204508 31 165 6.4 12.9 0.00 0.00 0.00 46 1016.5
20260830203006 31 217 3.2 12.9 0.00 0.00 0.00 48 1016.7
20260830201504 30 261 4.8 9.7 0.00 0.00 0.00 49 1016.8
20260830200000 30 231 4.8 11.3 0.00 0.00 0.00 49 1017.0
20260830194602 30 193 4.8 11.3 0.00 0.00 0.00 48 1017.0
20260830193056 31 193 4.8 19.3 0.00 0.00 0.00 46 1017.2
20260830191551 30 125 6.4 19.3 0.00 0.00 0.00 47 1017.4
20260830190046 30 250 6.4 16.1 0.00 0.00 0.00 47 1017.7
20260830184544 30 233 8.0 16.1 0.00 0.00 0.00 48 1018.0
20260830183044 30 149 6.4 16.1 0.00 0.00 0.00 47 1018.2
20260830181536 30 238 8.0 16.1 0.00 0.00 0.00 48 1018.5
20260830180034 29 236 6.4 16.1 0.00 0.00 0.00 47 1018.9
20260830174528 29 230 9.7 16.1 0.00 0.00 0.00 23 1019.2
20260830173020 28 167 6.4 16.1 0.00 0.00 0.00 25 1019.5
20260830171520 28 243 8.0 16.1 0.00 0.00 0.00 26 1019.6
20260830170011 27 269 4.8 14.5 0.00 0.00 0.00 31 1020.0
20260830164507 27 295 6.4 11.3 0.00 0.00 0.00 31 1020.4
20260830163005 26 251 9.7 19.3 0.00 0.00 0.00 32 1020.5
20260830161559 26 246 4.8 14.5 0.00 0.00 0.00 34 1020.7
20260830160105 25 217 4.8 9.7 0.00 0.00 0.00 34 1020.6
20260830154554 24 262 6.4 14.5 0.00 0.00 0.00 36 1020.9
20260830153053 25 307 3.2 16.1 0.00 0.00 0.00 36 1020.8